Location: Usti nad Labem
(50.6670°N, 14.0330°E)
Time: 23:29:10
(UTC+01:00)

ISS - Pass Details

Date: 01 December 2023
Orbit: 415 x 423 km, 51.6° (Epoch: 24 February)

Event Time Altitude Azimuth Distance (km) Brightness Sun altitude
Rises 18:03:46 0° 286° (WNW) 2,416 1.2 -18.4°
Reaches altitude 10° 18:05:56 10° 280° (W) 1,550 0.2 -18.7°
Maximum altitude 18:09:16 43° 207° (SSW) 626 -2.7 -19.3°
Enters shadow 18:10:32 29° 157° (SSE) 827 -2.4 -19.4°
